����������;��������(kVARh)
2017-07-31 00:00;8,1
2017-07-31 00:15;10,55
2017-07-31 00:30;10,85
2017-07-31 00:45;17,9
2017-07-31 01:00;23,8
2017-07-31 01:15;24,5
2017-07-31 01:30;19,35
2017-07-31 01:45;19,4
2017-07-31 02:00;20,8
2017-07-31 02:15;20,15
2017-07-31 02:30;22
2017-07-31 02:45;16,85
2017-07-31 03:00;12,65
2017-07-31 03:15;17,65
2017-07-31 03:30;16,85
2017-07-31 03:45;16
2017-07-31 04:00;15,15
2017-07-31 04:15;12,7
2017-07-31 04:30;15,5
2017-07-31 04:45;15,25
2017-07-31 05:00;15
2017-07-31 05:15;14,5
2017-07-31 05:30;15
2017-07-31 05:45;13,75
2017-07-31 06:00;14,95
2017-07-31 06:15;15,15
2017-07-31 06:30;14,2
2017-07-31 06:45;11,45
2017-07-31 07:00;16,8
2017-07-31 07:15;18,35
2017-07-31 07:30;18,85
2017-07-31 07:45;22,9
2017-07-31 08:00;26,9
2017-07-31 08:15;31,75
2017-07-31 08:30;34,85
2017-07-31 08:45;32,9
2017-07-31 09:00;34,85
2017-07-31 09:15;38,4
2017-07-31 09:30;33,8
2017-07-31 09:45;37,45
2017-07-31 10:00;48,3
2017-07-31 10:15;47,2
2017-07-31 10:30;49,6
2017-07-31 10:45;52,55
2017-07-31 11:00;62,9
2017-07-31 11:15;93,2
2017-07-31 11:30;73,1
2017-07-31 11:45;65,85
2017-07-31 12:00;79,05
2017-07-31 12:15;70,95
2017-07-31 12:30;72,1
2017-07-31 12:45;77,05
2017-07-31 13:00;72,4
2017-07-31 13:15;79,3
2017-07-31 13:30;70,9
2017-07-31 13:45;67,95
2017-07-31 14:00;69,45
2017-07-31 14:15;69,35
2017-07-31 14:30;66,8
2017-07-31 14:45;61,05
2017-07-31 15:00;59,15
2017-07-31 15:15;56,3
2017-07-31 15:30;56,9
2017-07-31 15:45;55,8
2017-07-31 16:00;51,4
2017-07-31 16:15;53
2017-07-31 16:30;50,25
2017-07-31 16:45;49,6
2017-07-31 17:00;44,25
2017-07-31 17:15;44,6
2017-07-31 17:30;43,95
2017-07-31 17:45;40,35
2017-07-31 18:00;39,8
2017-07-31 18:15;39,9
2017-07-31 18:30;35,85
2017-07-31 18:45;36,15
2017-07-31 19:00;35,75
2017-07-31 19:15;32,5
2017-07-31 19:30;32,35
2017-07-31 19:45;33,5
2017-07-31 20:00;29,3
2017-07-31 20:15;29,3
2017-07-31 20:30;24,25
2017-07-31 20:45;25,3
2017-07-31 21:00;22,95
2017-07-31 21:15;24,2
2017-07-31 21:30;24
2017-07-31 21:45;23,05
2017-07-31 22:00;19,25
2017-07-31 22:15;23,6
2017-07-31 22:30;20,8
2017-07-31 22:45;20,4
2017-07-31 23:00;19,9
2017-07-31 23:15;21
2017-07-31 23:30;20,75
2017-07-31 23:45;22,25
2017-08-01 00:00;22,7
2017-08-01 00:15;19,85
2017-08-01 00:30;20,4
2017-08-01 00:45;19,8
2017-08-01 01:00;21,35
2017-08-01 01:15;19,05
2017-08-01 01:30;19,5
2017-08-01 01:45;21,5
2017-08-01 02:00;22,35
2017-08-01 02:15;23,4
2017-08-01 02:30;23,15
2017-08-01 02:45;21,75
2017-08-01 03:00;11,7
2017-08-01 03:15;11,55
2017-08-01 03:30;12,6
2017-08-01 03:45;12,35
2017-08-01 04:00;13,05
2017-08-01 04:15;12,55
2017-08-01 04:30;13,2
2017-08-01 04:45;13,35
2017-08-01 05:00;12,45
2017-08-01 05:15;12,75
2017-08-01 05:30;12,25
2017-08-01 05:45;12,1
2017-08-01 06:00;11,65
2017-08-01 06:15;11,85
2017-08-01 06:30;17
2017-08-01 06:45;22,3
2017-08-01 07:00;17,3
2017-08-01 07:15;18,7
2017-08-01 07:30;38,9
2017-08-01 07:45;35,6
2017-08-01 08:00;23,6
2017-08-01 08:15;22,45
2017-08-01 08:30;21,75
2017-08-01 08:45;20,8
2017-08-01 09:00;30,6
2017-08-01 09:15;20,85
2017-08-01 09:30;22,85
2017-08-01 09:45;25,25
2017-08-01 10:00;23,95
2017-08-01 10:15;34,6
2017-08-01 10:30;45,5
2017-08-01 10:45;49,45
2017-08-01 11:00;47,45
2017-08-01 11:15;50,7
2017-08-01 11:30;52,5
2017-08-01 11:45;56,5
2017-08-01 12:00;56
2017-08-01 12:15;54,1
2017-08-01 12:30;56,35
2017-08-01 12:45;64,85
2017-08-01 13:00;58
2017-08-01 13:15;54,4
2017-08-01 13:30;65,55
2017-08-01 13:45;56,8
2017-08-01 14:00;57,55
2017-08-01 14:15;57,45
2017-08-01 14:30;53,35
2017-08-01 14:45;49,8
2017-08-01 15:00;50,25
2017-08-01 15:15;46,8
2017-08-01 15:30;43,8
2017-08-01 15:45;44,35
2017-08-01 16:00;44,1
2017-08-01 16:15;44,45
2017-08-01 16:30;42,65
2017-08-01 16:45;41,9
2017-08-01 17:00;40,4
2017-08-01 17:15;39,1
2017-08-01 17:30;38,15
2017-08-01 17:45;37,1
2017-08-01 18:00;34
2017-08-01 18:15;32,45
2017-08-01 18:30;32,15
2017-08-01 18:45;29,3
2017-08-01 19:00;27,3
2017-08-01 19:15;23,95
2017-08-01 19:30;25,65
2017-08-01 19:45;24,95
2017-08-01 20:00;22,15
2017-08-01 20:15;22,2
2017-08-01 20:30;21,65
2017-08-01 20:45;23,65
2017-08-01 21:00;21,7
2017-08-01 21:15;23,95
2017-08-01 21:30;23,8
2017-08-01 21:45;21,7
2017-08-01 22:00;23,5
2017-08-01 22:15;26,25
2017-08-01 22:30;23,1
2017-08-01 22:45;19,15
2017-08-01 23:00;15,9
2017-08-01 23:15;14,3
2017-08-01 23:30;13,3
2017-08-01 23:45;6,9
2017-08-02 00:00;2
2017-08-02 00:15;2,8
2017-08-02 00:30;4,05
2017-08-02 00:45;2,55
2017-08-02 01:00;3
2017-08-02 01:15;1,85
2017-08-02 01:30;1,75
2017-08-02 01:45;2,3
2017-08-02 02:00;2,7
2017-08-02 02:15;3,7
2017-08-02 02:30;4,55
2017-08-02 02:45;3,4
2017-08-02 03:00;4,05
2017-08-02 03:15;3,8
2017-08-02 03:30;4,4
2017-08-02 03:45;4,4
2017-08-02 04:00;5,4
2017-08-02 04:15;3,8
2017-08-02 04:30;5,7
2017-08-02 04:45;3,5
2017-08-02 05:00;5,45
2017-08-02 05:15;5,25
2017-08-02 05:30;4,3
2017-08-02 05:45;3,85
2017-08-02 06:00;5,4
2017-08-02 06:15;3,8
2017-08-02 06:30;10,6
2017-08-02 06:45;13,45
2017-08-02 07:00;7,35
2017-08-02 07:15;9,65
2017-08-02 07:30;52,05
2017-08-02 07:45;32
2017-08-02 08:00;28,35
2017-08-02 08:15;28,6
2017-08-02 08:30;26,55
2017-08-02 08:45;33
2017-08-02 09:00;35,7
2017-08-02 09:15;36,65
2017-08-02 09:30;36,85
2017-08-02 09:45;35,85
2017-08-02 10:00;37,05
2017-08-02 10:15;37,9
2017-08-02 10:30;47
2017-08-02 10:45;49,95
2017-08-02 11:00;47,9
2017-08-02 11:15;51,1
2017-08-02 11:30;53,55
2017-08-02 11:45;58,45
2017-08-02 12:00;87,55
2017-08-02 12:15;55,4
2017-08-02 12:30;64,2
2017-08-02 12:45;60,25
2017-08-02 13:00;63,45
2017-08-02 13:15;60,25
2017-08-02 13:30;54,7
2017-08-02 13:45;66,8
2017-08-02 14:00;56,5
2017-08-02 14:15;57,65
2017-08-02 14:30;61,4
2017-08-02 14:45;52,55
2017-08-02 15:00;50,55
2017-08-02 15:15;43,35
2017-08-02 15:30;45
2017-08-02 15:45;43,6
2017-08-02 16:00;43,8
2017-08-02 16:15;47,2
2017-08-02 16:30;43,25
2017-08-02 16:45;43,05
2017-08-02 17:00;42
2017-08-02 17:15;40,7
2017-08-02 17:30;43,7
2017-08-02 17:45;41,65
2017-08-02 18:00;38,95
2017-08-02 18:15;40,6
2017-08-02 18:30;35,9
2017-08-02 18:45;36,25
2017-08-02 19:00;34,95
2017-08-02 19:15;31,4
2017-08-02 19:30;29
2017-08-02 19:45;33,05
2017-08-02 20:00;30,45
2017-08-02 20:15;30,1
2017-08-02 20:30;26,8
2017-08-02 20:45;27,9
2017-08-02 21:00;25,25
2017-08-02 21:15;22,65
2017-08-02 21:30;15,7
2017-08-02 21:45;15,6
2017-08-02 22:00;13,6
2017-08-02 22:15;18,6
2017-08-02 22:30;22,2
2017-08-02 22:45;20,45
2017-08-02 23:00;8
2017-08-02 23:15;3,65
2017-08-02 23:30;4,1
2017-08-02 23:45;4,5
2017-08-03 00:00;4,95
2017-08-03 00:15;5,95
2017-08-03 00:30;7,15
2017-08-03 00:45;7
2017-08-03 01:00;2
2017-08-03 01:15;1,1
2017-08-03 01:30;3
2017-08-03 01:45;4,25
2017-08-03 02:00;3,4
2017-08-03 02:15;5,05
2017-08-03 02:30;5,7
2017-08-03 02:45;4,3
2017-08-03 03:00;4,8
2017-08-03 03:15;5,75
2017-08-03 03:30;5,45
2017-08-03 03:45;5,05
2017-08-03 04:00;6
2017-08-03 04:15;8,75
2017-08-03 04:30;10,9
2017-08-03 04:45;14,75
2017-08-03 05:00;17
2017-08-03 05:15;16,5
2017-08-03 05:30;16,2
2017-08-03 05:45;15,65
2017-08-03 06:00;15,05
2017-08-03 06:15;14,85
2017-08-03 06:30;21,45
2017-08-03 06:45;24,2
2017-08-03 07:00;17,4
2017-08-03 07:15;22,7
2017-08-03 07:30;53,5
2017-08-03 07:45;43,2
2017-08-03 08:00;34,8
2017-08-03 08:15;39,55
2017-08-03 08:30;37,55
2017-08-03 08:45;54
2017-08-03 09:00;49,4
2017-08-03 09:15;51,5
2017-08-03 09:30;50,5
2017-08-03 09:45;50,05
2017-08-03 10:00;59,05
2017-08-03 10:15;52,45
2017-08-03 10:30;49,15
2017-08-03 10:45;52
2017-08-03 11:00;49,8
2017-08-03 11:15;47,45
2017-08-03 11:30;55,05
2017-08-03 11:45;61,05
2017-08-03 12:00;59,55
2017-08-03 12:15;60,8
2017-08-03 12:30;59,95
2017-08-03 12:45;58,15
2017-08-03 13:00;59,8
2017-08-03 13:15;57,9
2017-08-03 13:30;57,75
2017-08-03 13:45;68,65
2017-08-03 14:00;61,25
2017-08-03 14:15;62,15
2017-08-03 14:30;65,4
2017-08-03 14:45;52,4
2017-08-03 15:00;53,05
2017-08-03 15:15;46,6
2017-08-03 15:30;49,05
2017-08-03 15:45;41,5
2017-08-03 16:00;39,35
2017-08-03 16:15;40,2
2017-08-03 16:30;40,2
2017-08-03 16:45;42,45
2017-08-03 17:00;36,55
2017-08-03 17:15;36,15
2017-08-03 17:30;35,15
2017-08-03 17:45;34,3
2017-08-03 18:00;34,95
2017-08-03 18:15;30,6
2017-08-03 18:30;29,95
2017-08-03 18:45;27,7
2017-08-03 19:00;28,15
2017-08-03 19:15;23,65
2017-08-03 19:30;25
2017-08-03 19:45;23,15
2017-08-03 20:00;21,45
2017-08-03 20:15;19,45
2017-08-03 20:30;20,3
2017-08-03 20:45;21,25
2017-08-03 21:00;22,35
2017-08-03 21:15;22,9
2017-08-03 21:30;23,8
2017-08-03 21:45;22,2
2017-08-03 22:00;25,9
2017-08-03 22:15;25,65
2017-08-03 22:30;24,45
2017-08-03 22:45;25,95
2017-08-03 23:00;22,55
2017-08-03 23:15;19,3
2017-08-03 23:30;21,5
2017-08-03 23:45;22,7
2017-08-04 00:00;24,5
2017-08-04 00:15;25,4
2017-08-04 00:30;23,8
2017-08-04 00:45;19,15
2017-08-04 01:00;14,6
2017-08-04 01:15;14,95
2017-08-04 01:30;16,8
2017-08-04 01:45;18,4
2017-08-04 02:00;19,65
2017-08-04 02:15;16,75
2017-08-04 02:30;18,15
2017-08-04 02:45;5,45
2017-08-04 03:00;6,95
2017-08-04 03:15;5,05
2017-08-04 03:30;4,65
2017-08-04 03:45;5,95
2017-08-04 04:00;5,2
2017-08-04 04:15;4,7
2017-08-04 04:30;7,15
2017-08-04 04:45;5,35
2017-08-04 05:00;6,5
2017-08-04 05:15;6,85
2017-08-04 05:30;6,05
2017-08-04 05:45;5,35
2017-08-04 06:00;5,85
2017-08-04 06:15;5,15
2017-08-04 06:30;5,05
2017-08-04 06:45;14,3
2017-08-04 07:00;15,1
2017-08-04 07:15;11,5
2017-08-04 07:30;46,4
2017-08-04 07:45;33,6
2017-08-04 08:00;21,6
2017-08-04 08:15;29,4
2017-08-04 08:30;33
2017-08-04 08:45;35,25
2017-08-04 09:00;38,8
2017-08-04 09:15;38,55
2017-08-04 09:30;33,6
2017-08-04 09:45;35,95
2017-08-04 10:00;43,95
2017-08-04 10:15;48,85
2017-08-04 10:30;45,65
2017-08-04 10:45;49,4
2017-08-04 11:00;56,95
2017-08-04 11:15;48,55
2017-08-04 11:30;47,4
2017-08-04 11:45;57
2017-08-04 12:00;53,9
2017-08-04 12:15;53,15
2017-08-04 12:30;62,5
2017-08-04 12:45;58,65
2017-08-04 13:00;58,6
2017-08-04 13:15;61,55
2017-08-04 13:30;59
2017-08-04 13:45;63,7
2017-08-04 14:00;52,65
2017-08-04 14:15;39,7
2017-08-04 14:30;46,6
2017-08-04 14:45;33,5
2017-08-04 15:00;31,5
2017-08-04 15:15;27,05
2017-08-04 15:30;25
2017-08-04 15:45;25,05
2017-08-04 16:00;23,3
2017-08-04 16:15;22,95
2017-08-04 16:30;21,85
2017-08-04 16:45;23,75
2017-08-04 17:00;19,9
2017-08-04 17:15;18,2
2017-08-04 17:30;17,95
2017-08-04 17:45;14,45
2017-08-04 18:00;13,2
2017-08-04 18:15;14,75
2017-08-04 18:30;11,1
2017-08-04 18:45;11
2017-08-04 19:00;10,65
2017-08-04 19:15;6,75
2017-08-04 19:30;6,25
2017-08-04 19:45;5,6
2017-08-04 20:00;5,55
2017-08-04 20:15;10,85
2017-08-04 20:30;13,1
2017-08-04 20:45;10,7
2017-08-04 21:00;7,4
2017-08-04 21:15;10,2
2017-08-04 21:30;10,9
2017-08-04 21:45;12,8
2017-08-04 22:00;14,15
2017-08-04 22:15;16,6
2017-08-04 22:30;14,95
2017-08-04 22:45;15,5
2017-08-04 23:00;12,5
2017-08-04 23:15;7,75
2017-08-04 23:30;7,4
2017-08-04 23:45;8,5
2017-08-05 00:00;10,4
2017-08-05 00:15;11,25
2017-08-05 00:30;12
2017-08-05 00:45;10,75
2017-08-05 01:00;12,9
2017-08-05 01:15;3,1
2017-08-05 01:30;3,5
2017-08-05 01:45;3,05
2017-08-05 02:00;2,75
2017-08-05 02:15;2,3
2017-08-05 02:30;1,95
2017-08-05 02:45;1,55
2017-08-05 03:00;2,8
2017-08-05 03:15;2,4
2017-08-05 03:30;3,8
2017-08-05 03:45;2,55
2017-08-05 04:00;3,4
2017-08-05 04:15;3,75
2017-08-05 04:30;4,2
2017-08-05 04:45;3,9
2017-08-05 05:00;5,1
2017-08-05 05:15;4,45
2017-08-05 05:30;3,65
2017-08-05 05:45;4,1
2017-08-05 06:00;3,7
2017-08-05 06:15;3,7
2017-08-05 06:30;3,7
2017-08-05 06:45;4,85
2017-08-05 07:00;4,2
2017-08-05 07:15;10,2
2017-08-05 07:30;11,15
2017-08-05 07:45;9,9
2017-08-05 08:00;10,5
2017-08-05 08:15;7,05
2017-08-05 08:30;5,95
2017-08-05 08:45;5,25
2017-08-05 09:00;5,5
2017-08-05 09:15;7,55
2017-08-05 09:30;8,5
2017-08-05 09:45;6,9
2017-08-05 10:00;6,95
2017-08-05 10:15;6,45
2017-08-05 10:30;5,1
2017-08-05 10:45;6,15
2017-08-05 11:00;4,75
2017-08-05 11:15;4,85
2017-08-05 11:30;4,65
2017-08-05 11:45;4
2017-08-05 12:00;5,05
2017-08-05 12:15;4,15
2017-08-05 12:30;4,5
2017-08-05 12:45;6,7
2017-08-05 13:00;7,35
2017-08-05 13:15;6,95
2017-08-05 13:30;7,25
2017-08-05 13:45;7,45
2017-08-05 14:00;9,25
2017-08-05 14:15;8,7
2017-08-05 14:30;10,05
2017-08-05 14:45;9,3
2017-08-05 15:00;8,4
2017-08-05 15:15;6,85
2017-08-05 15:30;8,2
2017-08-05 15:45;8,85
2017-08-05 16:00;7,3
2017-08-05 16:15;8,05
2017-08-05 16:30;7,65
2017-08-05 16:45;8,9
2017-08-05 17:00;9,45
2017-08-05 17:15;7,65
2017-08-05 17:30;6,45
2017-08-05 17:45;7,6
2017-08-05 18:00;7,6
2017-08-05 18:15;8,6
2017-08-05 18:30;8,65
2017-08-05 18:45;8,95
2017-08-05 19:00;10,1
2017-08-05 19:15;11,15
2017-08-05 19:30;10,9
2017-08-05 19:45;13,1
2017-08-05 20:00;11,6
2017-08-05 20:15;12,25
2017-08-05 20:30;13,85
2017-08-05 20:45;13,9
2017-08-05 21:00;14
2017-08-05 21:15;12,7
2017-08-05 21:30;14,1
2017-08-05 21:45;14,8
2017-08-05 22:00;15,4
2017-08-05 22:15;17,2
2017-08-05 22:30;15,1
2017-08-05 22:45;14,9
2017-08-05 23:00;9,95
2017-08-05 23:15;5
2017-08-05 23:30;5,45
2017-08-05 23:45;4,9
2017-08-06 00:00;5,8
2017-08-06 00:15;4,75
2017-08-06 00:30;6,6
2017-08-06 00:45;7,4
2017-08-06 01:00;7,8
2017-08-06 01:15;8
2017-08-06 01:30;7,55
2017-08-06 01:45;6,95
2017-08-06 02:00;8,25
2017-08-06 02:15;10,1
2017-08-06 02:30;9,9
2017-08-06 02:45;10,7
2017-08-06 03:00;7,1
2017-08-06 03:15;7,15
2017-08-06 03:30;15
2017-08-06 03:45;15,8
2017-08-06 04:00;15,65
2017-08-06 04:15;15,05
2017-08-06 04:30;16,85
2017-08-06 04:45;17,25
2017-08-06 05:00;15,55
2017-08-06 05:15;11,2
2017-08-06 05:30;11,25
2017-08-06 05:45;14,65
2017-08-06 06:00;14,4
2017-08-06 06:15;15,9
2017-08-06 06:30;16,45
2017-08-06 06:45;16,35
2017-08-06 07:00;16,05
2017-08-06 07:15;15,75
2017-08-06 07:30;13,85
2017-08-06 07:45;15
2017-08-06 08:00;15,15
2017-08-06 08:15;12,1
2017-08-06 08:30;11,4
2017-08-06 08:45;11,65
2017-08-06 09:00;11,45
2017-08-06 09:15;9,7
2017-08-06 09:30;10,15
2017-08-06 09:45;8,6
2017-08-06 10:00;8,1
2017-08-06 10:15;9,6
2017-08-06 10:30;7,4
2017-08-06 10:45;7,9
2017-08-06 11:00;7
2017-08-06 11:15;8,15
2017-08-06 11:30;7,75
2017-08-06 11:45;9,05
2017-08-06 12:00;9,85
2017-08-06 12:15;7,85
2017-08-06 12:30;10,2
2017-08-06 12:45;13,45
2017-08-06 13:00;12
2017-08-06 13:15;12,25
2017-08-06 13:30;10
2017-08-06 13:45;12,3
2017-08-06 14:00;12,75
2017-08-06 14:15;13,4
2017-08-06 14:30;13,65
2017-08-06 14:45;12,8
2017-08-06 15:00;14,25
2017-08-06 15:15;12,95
2017-08-06 15:30;13,2
2017-08-06 15:45;12,5
2017-08-06 16:00;13,5
2017-08-06 16:15;13,3
2017-08-06 16:30;12,95
2017-08-06 16:45;14,55
2017-08-06 17:00;13,95
2017-08-06 17:15;12,7
2017-08-06 17:30;13,85
2017-08-06 17:45;14,7
2017-08-06 18:00;12,95
2017-08-06 18:15;12,65
2017-08-06 18:30;10,15
2017-08-06 18:45;9,2
2017-08-06 19:00;9
2017-08-06 19:15;8,7
2017-08-06 19:30;7,75
2017-08-06 19:45;9,4
2017-08-06 20:00;9,4
2017-08-06 20:15;13,15
2017-08-06 20:30;15,35
2017-08-06 20:45;16,05
2017-08-06 21:00;14,5
2017-08-06 21:15;13,4
2017-08-06 21:30;14
2017-08-06 21:45;15,55
2017-08-06 22:00;15,15
2017-08-06 22:15;17,45
2017-08-06 22:30;19,9
2017-08-06 22:45;18,95
2017-08-06 23:00;14,45
2017-08-06 23:15;9,25
2017-08-06 23:30;9,55
2017-08-06 23:45;9,4

